Location: Boullarre
(49.1305°N, 3.0047°E)
Time: 08:25:23
(UTC+00:00)

Tiangong - Pass Details

Date: 09 June 2023
Orbit: 372 x 384 km, 41.5° (Epoch: 30 September)

Event Time Altitude Azimuth Distance (km) Brightness Sun altitude
Exits shadow 02:40:32 12° 229° (SW) 1,293 -0.1 -8.3°
Maximum altitude 02:42:35 20° 184° (S) 952 -0.6 -8.1°
Drops below altitude 10° 02:44:58 10° 134° (SE) 1,396 0.7 -7.8°
Sets 02:47:23 0° 117° (ESE) 2,257 2.0 -7.6°
